Weather History for Chicopee, MA

Change the Weather History Date:

Sunday, December 18, 2011

  Actual Average Record
Temperature  
Mean Temperature 18 °F -  
Max Temperature 26 °F 36 °F 53 °F (1996)
Min Temperature 10 °F 21 °F -4 °F (2007)
Degree Days  
Heating Degree Days 46    
Moisture  
Dew Point 3 °F    
Average Humidity 55    
Maximum Humidity 85    
Minimum Humidity 26    
Precipitation  
Precipitation 0.00 in - - ()
Sea Level Pressure  
Sea Level Pressure 30.25 in    
Wind  
Wind Speed 8 mph (NNE)    
Max Wind Speed 14 mph    
Max Gust Speed -    
Visibility 10 miles    
Events      
Averages and records for this station are not official NWS values.
T = Trace of Precipitation, MM = Missing Value Source: NWS Daily Summary

Daily Weather History Graph

Daily Weather History Graph

Search for Another Location

Airport:

Trip Planner

Search our weather history database for the weather conditions in past years. The results will help you decide how hot, cold, wet, or windy it might be!

Date:

Astronomy

Dec. 18, 2011 Rise Set
Actual Time 7:13 AM EST 4:19 PM EST
Civil Twilight 6:41 AM EST 4:51 PM EST
Nautical Twilight 6:06 AM EST 5:26 PM EST
Astronomical Twilight 5:32 AM EST 6:01 PM EST
Moon 12:05 AM EST (12/18) 11:48 AM EST (12/18)
Length of Visible Light 10h 09m
Length of Day
9h 06m
Last Quarter, 42% of the Moon is Illuminated
Dec 18
Last Quarter
Dec 24
New
Jan 1
First Quarter
Jan 9
Full
Jan 16
Last Quarter

Hourly Weather History & Observations

Time (EST) Temp. Windchill Dew Point Humidity Pressure Visibility Wind Dir Wind Speed Gust Speed Precip Events Conditions
12:55 AM 22.1 °F 10.6 °F 7.5 °F 54% 30.17 in 10.0 mi North 11.5 mph - N/A   Clear
1:55 AM 20.5 °F 10.8 °F 6.4 °F 55% 30.17 in 10.0 mi NNW 8.1 mph - N/A   Clear
2:55 AM 19.8 °F 8.3 °F 5.0 °F 53% 30.18 in 10.0 mi North 10.4 mph - N/A   Clear
3:55 AM 18.0 °F 6.1 °F 4.5 °F 56% 30.19 in 10.0 mi North 10.4 mph - N/A   Clear
4:55 AM 16.5 °F 5.1 °F 3.7 °F 57% 30.21 in 10.0 mi North 9.2 mph - N/A   Clear
5:55 AM 16.2 °F 3.9 °F 2.7 °F 55% 30.23 in 10.0 mi North 10.4 mph - N/A   Clear
6:55 AM 15.3 °F 3.5 °F 3.4 °F 59% 30.25 in 10.0 mi North 9.2 mph - N/A   Clear
7:55 AM 15.3 °F 2.0 °F 3.9 °F 61% 30.25 in 10.0 mi NNE 11.5 mph - N/A   Clear
8:55 AM 17.4 °F 4.7 °F 3.9 °F 56% 30.26 in 10.0 mi North 11.5 mph - N/A   Clear
9:55 AM 19.8 °F 7.1 °F 3.4 °F 49% 30.27 in 10.0 mi North 12.7 mph - N/A   Clear
10:55 AM 21.4 °F 10.4 °F 1.0 °F 41% 30.26 in 10.0 mi North 10.4 mph - N/A   Clear
11:55 AM 23.2 °F 14.1 °F -0.4 °F 36% 30.24 in 10.0 mi NNE 8.1 mph - N/A   Clear
12:55 PM 24.6 °F 12.7 °F -4.4 °F 28% 30.23 in 10.0 mi NNE 13.8 mph - N/A   Clear
1:55 PM 25.7 °F 18.0 °F -5.4 °F 26% 30.23 in 10.0 mi NE 6.9 mph - N/A   Clear
2:55 PM 26.4 °F 18.9 °F -3.6 °F 27% 30.22 in 10.0 mi NNE 6.9 mph - N/A   Clear
3:55 PM 25.0 °F 19.3 °F -3.5 °F 29% 30.24 in 10.0 mi NNE 4.6 mph - N/A   Clear
4:55 PM 22.3 °F - -0.2 °F 38% 30.26 in 10.0 mi Calm Calm - N/A   Clear
5:55 PM 18.0 °F - 8.6 °F 67% 30.28 in 10.0 mi Calm Calm - N/A   Clear
6:55 PM 14.0 °F - 5.0 °F 67% 30.30 in 10.0 mi Calm Calm - N/A   Clear
7:55 PM 13.6 °F 7.7 °F 6.8 °F 74% 30.31 in 10.0 mi NNE 3.5 mph - N/A   Clear
8:55 PM 14.2 °F - 8.2 °F 77% 30.31 in 10.0 mi Calm Calm - N/A   Clear
9:55 PM 11.5 °F - 7.3 °F 83% 30.32 in 10.0 mi Calm Calm - N/A   Clear
10:55 PM 11.7 °F - 7.9 °F 85% 30.30 in 10.0 mi Calm Calm - N/A   Clear
11:55 PM 10.8 °F - 6.6 °F 83% 30.28 in 10.0 mi Calm Calm - N/A   Clear